Regional Weather Roundup
Issued by NWS

Home | Current Version | Previous Version | Graphics & Text | Print | Product List | Glossary On
Versions: 1 2 3 4 5 6 7 8 9 10 11 12 13 14 15 16 17 18 19 20 21 22 23 24 25 26 27 28 29 30 31 32 33 34 35 36 37 38 39 40 41 42 43 44 45 46 47 48 49 50
000
ASUS43 KDMX 261606
RWRIA

WEATHER ROUNDUP FOR IOWA
NATIONAL WEATHER SERVICE DES MOINES IA
1100 AM CDT WED APR 26 2017

NOTE: "FAIR" INDICATES FEW OR NO CLOUDS BELOW 12,000 FEET WITH NO
SIGNIFICANT WEATHER AND/OR OBSTRUCTIONS TO VISIBILITY.

* - THESE STATIONS ARE NOT NWS STATIONS...THUS NOT UNDER NWS
QUALITY CONTROL.  THEY ALSO DO NOT REPORT WEATHER SUCH
AS PRECIPITATION OR FOG.

IAZ001>003-012>014-020>022-031>034-043>046-261700-
   NORTHWEST IOWA

CITY           SKY/WX    TMP DP  RH WIND       PRES   REMARKS
CARROLL *      CLOUDY    41  39  93 NW17G25   29.60R
CHEROKEE *     CLOUDY    38  36  93 NW15G21   29.61F WCI  29
DENISON *      CLOUDY    36  36 100 NW17      29.64R WCI  25
LE MARS *      CLOUDY    36  34  93 NW20      29.65S WCI  25
ORANGE CITY *  CLOUDY    36  34  93 NW18G26   29.61F WCI  25
SHELDON *      CLOUDY    36  34  93 NW18G26   29.60S WCI  25
SIOUX CITY     CLOUDY    38  32  79 NW26G35   29.65R WCI  26
SPENCER        CLOUDY    39  35  86 NW21      29.59R WCI  29
STORM LAKE *     N/A     37  36  93 NW20      29.58F WCI  27
$$

IAZ055>058-069>071-079>083-090>094-261700-
   SOUTHWEST IOWA

CITY           SKY/WX    TMP DP  RH WIND       PRES   REMARKS
ATLANTIC *     CLOUDY    39  36  87 NW14      29.65R WCI  31
AUDUBON *      CLOUDY    37  36  93 NW12G17   29.65R WCI  30
CLARINDA *     CLOUDY    41  36  81 NW16      29.66S
COUNCIL BLFS *   N/A     37  37 100 NW15      29.67R WCI  28
CRESTON *      CLOUDY    43  37  81 NW24      29.60F
HARLAN  *      CLOUDY    37  37 100 NW16      29.69R WCI  28
LAMONI         CLOUDY    43  39  86 NW16      29.58F
RED OAK *      CLOUDY    39  34  81 NW18      29.65F WCI  30
SHENANDOAH *   CLOUDY    41  34  75 NW15G23   29.67F
$$

IAZ047>049-059>061-072>074-084-261700-
   CENTRAL IOWA

CITY           SKY/WX    TMP DP  RH WIND       PRES   REMARKS
AMES           CLOUDY    44  40  85 NW17G25   29.57R
ANKENY *       CLOUDY    43  39  87 W20       29.57F
BOONE *        CLOUDY    43  39  87 W18G24    29.57R
CHARITON *     CLOUDY    43  41  93 NW18      29.56S
DES MOINES     CLOUDY    45  39  79 NW21      29.56F
GRINNELL*      CLOUDY    44  42  91 W18G25    29.54R
KNOXVILLE *    CLOUDY    45  41  87 NW18      29.53F
MARSHALLTOWN   CLOUDY    44  42  93 W20       29.53R
NEWTON *       CLOUDY    43  41  93 NW16G25   29.54F
PELLA *        CLOUDY    43  41  93 NW16      29.55F FOG
PERRY *        CLOUDY    43  38  82 W14       29.61R
$$

IAZ004>006-015-016-023>025-035-036-261700-
   NORTH CENTRAL IOWA

CITY           SKY/WX    TMP DP  RH WIND       PRES   REMARKS
ALGONA *         N/A     39  39 100 NW17G24   29.54F WCI  30
CLARION *      CLOUDY    41  41 100 NW24      29.53F
ESTHERVILLE    CLOUDY    37  36  96 NW23G29   29.57R WCI  26
FORT DODGE *   CLOUDY    41  36  81 NW12G20   29.57S
MASON CITY     CLOUDY    41  39  93 NW23G30   29.50R FOG
FOREST CITY *  CLOUDY    37  37 100 NW21      29.51F WCI  27
WEBSTER CITY * CLOUDY    43  39  87 NW20G25   29.55R
IOWA FALLS *   CLOUDY    43  39  86 NW21      29.54R
$$

IAZ007>011-017>019-026>030-037>042-050>054-066-261700-
   NORTHEAST IOWA

CITY           SKY/WX    TMP DP  RH WIND       PRES   REMARKS
CEDAR RAPIDS   CLOUDY    47  47 100 W16       29.49R FOG
CHARLES CITY * CLOUDY    45  45 100 NW16G24   29.47R
CLINTON *      CLOUDY    57  56  96 W17       29.46R FOG
DECORAH *      FOG       54  52  94 W7G14     29.41R VSB 1/2
DUBUQUE        CLOUDY    53  52  96 W21       29.45R
MONTICELLO *   CLOUDY    52  50  93 W10       29.46S
OELWEIN *      CLOUDY    48  48 100 W17       29.45S
WATERLOO       CLOUDY    47  44  90 W15       29.48R
$$

IAZ064-065-067-068-078-261700-
   EAST CENTRAL IOWA

CITY           SKY/WX    TMP DP  RH WIND       PRES   REMARKS
DAVENPORT      CLOUDY    55  52  89 W17       29.48R
IOWA CITY      CLOUDY    50  45  83 W16       29.51S
MT. PLEASANT * CLOUDY    48  47  95 W13       29.54R
MUSCATINE *    CLOUDY    52  48  87 W12G20    29.51R
QUAD CITIES    CLOUDY    58  53  84 W18       29.47R
$$

IAZ062-063-075>077-085>089-095>099-261700-
   SOUTHEAST IOWA

CITY           SKY/WX    TMP DP  RH WIND       PRES   REMARKS
BURLINGTON     CLOUDY    53  51  93 W8        29.51R
FAIRFIELD *    CLOUDY    46  43  87 W16       29.54R
FORT MADISON * CLOUDY    54  48  82 W13       29.55R
KEOKUK *       CLOUDY    52  48  87 W13       29.53R
OSKALOOSA *    CLOUDY    45  42  89 NW21G26   29.55R
CENTERVILLE *  CLOUDY    43  41  93 NW13      29.58S
OTTUMWA        CLOUDY    46  43  89 W12G22    29.55R
WASHINGTON *   CLOUDY    48  46  93 W14       29.54R
$$

ABBREVIATIONS USED IN REMARKS
   TC - TEMPERATURES IN CELSIUS
  WCI - WIND CHILL INDEX
   HX - HEAT INDEX
  VSB - VISIBILITY
$$





USA.gov is the U.S. government's official web portal to all federal, state and local government web resources and services.